BEIDOU-2 G6

Last updated on Sun Jun 21 2026 00:03:05 GMT+0000 (Coordinated Universal Time)

1 38953U 12059A 26170.70976387 -.00000183 00000+0 00000+0 0 9999 2 38953 4.4288 73.4979 0009632 324.3686 209.6174 1.00271500 49937
UTC large
Height (km)
Speed (km/s)
/
Latitude / Longitude
Inclination (degrees)
Orbital Period (minutes)
Azimuth
Elevation
Range (km)
Doppler Factor

Next 0 passes for location: London (51.5072 / 0.1276)

No passes found over London.
BEIDOU-2 G6